Time,TemperatureF,DewpointF,PressureIn,WindDirection,WindDirectionDegrees,WindSpeedMPH,WindSpeedGustMPH,Humidity,HourlyPrecipIn,Conditions,Clouds,dailyrainin,SoftwareType,DateUTC
2013-03-23 00:02:00,26.0,20.0,30.09,North,10,0.0,-999.0,79,-99.99,,,-99.99,,2013-03-23 04:02:00,
2013-03-23 00:12:00,26.0,20.0,30.09,North,10,0.0,-999.0,79,-99.99,,,-99.99,,2013-03-23 04:12:00,
2013-03-23 00:23:00,26.0,20.0,30.09,North,10,0.0,-999.0,79,-99.99,,,-99.99,,2013-03-23 04:23:00,
2013-03-23 00:32:00,26.0,21.0,30.08,North,10,0.0,-999.0,80,-99.99,,,-99.99,,2013-03-23 04:32:00,
2013-03-23 00:43:00,26.0,21.0,30.08,North,10,0.0,-999.0,80,-99.99,,,-99.99,,2013-03-23 04:43:00,
2013-03-23 00:53:00,25.0,20.0,30.08,North,10,0.0,-999.0,80,-99.99,,,-99.99,,2013-03-23 04:53:00,
2013-03-23 01:02:00,25.0,20.0,30.08,North,10,0.0,-999.0,81,-99.99,,,-99.99,,2013-03-23 05:02:00,
2013-03-23 01:12:00,25.0,20.0,30.08,North,10,0.0,-999.0,81,-99.99,,,-99.99,,2013-03-23 05:12:00,
2013-03-23 01:22:00,25.0,20.0,30.08,North,10,0.0,-999.0,81,-99.99,,,-99.99,,2013-03-23 05:22:00,
2013-03-23 01:32:00,24.0,19.0,30.07,North,10,0.0,-999.0,82,-99.99,,,-99.99,,2013-03-23 05:32:00,
2013-03-23 01:42:00,24.0,19.0,30.07,North,10,0.0,-999.0,82,-99.99,,,-99.99,,2013-03-23 05:42:00,
2013-03-23 01:52:00,24.0,20.0,30.07,North,10,0.0,-999.0,83,-99.99,,,-99.99,,2013-03-23 05:52:00,
2013-03-23 02:02:00,24.0,20.0,30.07,North,10,0.0,-999.0,83,-99.99,,,-99.99,,2013-03-23 06:02:00,
2013-03-23 02:12:00,24.0,20.0,30.07,North,10,0.0,-999.0,83,-99.99,,,-99.99,,2013-03-23 06:12:00,
2013-03-23 02:22:00,24.0,20.0,30.07,North,10,0.0,-999.0,84,-99.99,,,-99.99,,2013-03-23 06:22:00,
2013-03-23 02:32:00,24.0,20.0,30.07,North,10,0.0,-999.0,84,-99.99,,,-99.99,,2013-03-23 06:32:00,
2013-03-23 02:42:00,24.0,20.0,30.07,North,10,0.0,-999.0,84,-99.99,,,-99.99,,2013-03-23 06:42:00,
2013-03-23 02:52:00,23.0,19.0,30.07,North,10,0.0,-999.0,84,-99.99,,,-99.99,,2013-03-23 06:52:00,
2013-03-23 03:02:00,23.0,19.0,30.07,North,10,0.0,-999.0,84,-99.99,,,-99.99,,2013-03-23 07:02:00,
2013-03-23 03:12:00,23.0,19.0,30.07,North,10,0.0,-999.0,84,-99.99,,,-99.99,,2013-03-23 07:12:00,
2013-03-23 03:22:00,22.0,18.0,30.07,North,10,0.0,-999.0,85,-99.99,,,-99.99,,2013-03-23 07:22:00,
2013-03-23 03:32:00,22.0,18.0,30.07,North,10,0.0,-999.0,85,-99.99,,,-99.99,,2013-03-23 07:32:00,
2013-03-23 03:42:00,22.0,18.0,30.07,North,10,0.0,-999.0,85,-99.99,,,-99.99,,2013-03-23 07:42:00,
2013-03-23 03:52:00,22.0,18.0,30.07,North,10,0.0,-999.0,85,-99.99,,,-99.99,,2013-03-23 07:52:00,
2013-03-23 08:33:00,21.0,18.0,30.10,North,10,0.0,-999.0,89,-99.99,,,-99.99,,2013-03-23 12:33:00,
2013-03-23 08:43:00,21.0,18.0,30.10,North,10,0.0,-999.0,89,-99.99,,,-99.99,,2013-03-23 12:43:00,
2013-03-23 08:53:00,22.0,20.0,30.10,North,10,0.0,-999.0,90,-99.99,,,-99.99,,2013-03-23 12:53:00,
2013-03-23 09:03:00,23.0,21.0,30.11,North,10,0.0,-999.0,90,-99.99,,,-99.99,,2013-03-23 13:03:00,
2013-03-23 09:12:00,23.0,21.0,30.11,North,10,0.0,-999.0,90,-99.99,,,-99.99,,2013-03-23 13:12:00,
2013-03-23 09:22:00,24.0,22.0,30.11,North,10,0.0,-999.0,90,-99.99,,,-99.99,,2013-03-23 13:22:00,
2013-03-23 09:32:00,25.0,22.0,30.12,North,10,0.0,-999.0,90,-99.99,,,-99.99,,2013-03-23 13:32:00,
2013-03-23 09:42:00,25.0,22.0,30.12,North,10,0.0,-999.0,90,-99.99,,,-99.99,,2013-03-23 13:42:00,
2013-03-23 09:53:00,27.0,24.0,30.12,North,10,0.0,-999.0,88,-99.99,,,-99.99,,2013-03-23 13:53:00,
2013-03-23 10:03:00,28.0,22.0,30.11,NE,37,0.0,-999.0,79,-99.99,,,-99.99,,2013-03-23 14:03:00,
2013-03-23 10:12:00,28.0,22.0,30.11,NE,37,0.0,-999.0,79,-99.99,,,-99.99,,2013-03-23 14:12:00,
2013-03-23 10:22:00,30.0,22.0,30.11,East,83,1.0,-999.0,72,-99.99,,,-99.99,,2013-03-23 14:22:00,
2013-03-23 10:32:00,30.0,21.0,30.11,East,90,1.0,-999.0,70,-99.99,,,-99.99,,2013-03-23 14:32:00,
2013-03-23 10:42:00,30.0,21.0,30.11,East,90,1.0,-999.0,70,-99.99,,,-99.99,,2013-03-23 14:42:00,
2013-03-23 10:53:00,31.0,22.0,30.13,East,89,1.0,-999.0,69,-99.99,,,-99.99,,2013-03-23 14:53:00,
2013-03-23 11:03:00,31.0,22.0,30.13,NNE,14,1.0,-999.0,70,-99.99,,,-99.99,,2013-03-23 15:03:00,
2013-03-23 11:12:00,31.0,22.0,30.13,NNE,14,1.0,-999.0,70,-99.99,,,-99.99,,2013-03-23 15:12:00,
2013-03-23 11:22:00,32.0,23.0,30.14,North,10,1.0,-999.0,68,-99.99,,,-99.99,,2013-03-23 15:22:00,
2013-03-23 11:33:00,32.0,23.0,30.14,North,360,1.0,-999.0,68,-99.99,,,-99.99,,2013-03-23 15:33:00,
2013-03-23 11:43:00,32.0,23.0,30.14,North,360,1.0,-999.0,68,-99.99,,,-99.99,,2013-03-23 15:43:00,
2013-03-23 11:53:00,32.0,22.0,30.15,West,261,1.0,-999.0,67,-99.99,,,-99.99,,2013-03-23 15:53:00,
2013-03-23 12:03:00,32.0,22.0,30.15,NNE,13,1.0,-999.0,67,-99.99,,,-99.99,,2013-03-23 16:03:00,
2013-03-23 12:12:00,32.0,22.0,30.15,NNE,13,1.0,-999.0,67,-99.99,,,-99.99,,2013-03-23 16:12:00,
2013-03-23 12:23:00,34.0,23.0,30.14,NNE,13,2.0,-999.0,64,-99.99,,,-99.99,,2013-03-23 16:23:00,
2013-03-23 12:32:00,35.0,23.0,30.14,NE,51,2.0,-999.0,61,-99.99,,,-99.99,,2013-03-23 16:32:00,
2013-03-23 12:43:00,35.0,23.0,30.14,NE,51,2.0,-999.0,61,-99.99,,,-99.99,,2013-03-23 16:43:00,
2013-03-23 12:53:00,35.0,23.0,30.14,NW,311,2.0,-999.0,60,-99.99,,,-99.99,,2013-03-23 16:53:00,
2013-03-23 13:02:00,36.0,24.0,30.14,North,8,1.0,-999.0,61,-99.99,,,-99.99,,2013-03-23 17:02:00,
2013-03-23 13:12:00,36.0,24.0,30.13,NE,51,2.0,-999.0,61,-99.99,,,-99.99,,2013-03-23 17:12:00,
2013-03-23 13:22:00,36.0,24.0,30.13,NE,51,2.0,-999.0,61,-99.99,,,-99.99,,2013-03-23 17:22:00,
2013-03-23 13:32:00,35.0,23.0,30.13,NE,47,2.0,-999.0,61,-99.99,,,-99.99,,2013-03-23 17:32:00,
2013-03-23 13:42:00,35.0,23.0,30.13,NE,47,2.0,-999.0,61,-99.99,,,-99.99,,2013-03-23 17:42:00,
2013-03-23 13:53:00,36.0,23.0,30.12,North,7,1.0,-999.0,60,-99.99,,,-99.99,,2013-03-23 17:53:00,
2013-03-23 14:03:00,36.0,23.0,30.12,NE,51,3.0,-999.0,59,-99.99,,,-99.99,,2013-03-23 18:03:00,
2013-03-23 14:12:00,36.0,23.0,30.12,NE,51,3.0,-999.0,59,-99.99,,,-99.99,,2013-03-23 18:12:00,
2013-03-23 14:22:00,36.0,24.0,30.12,NE,44,3.0,-999.0,61,-99.99,,,-99.99,,2013-03-23 18:22:00,
2013-03-23 14:32:00,36.0,23.0,30.12,North,360,2.0,-999.0,59,-99.99,,,-99.99,,2013-03-23 18:32:00,
2013-03-23 14:42:00,36.0,23.0,30.12,North,360,2.0,-999.0,59,-99.99,,,-99.99,,2013-03-23 18:42:00,
2013-03-23 14:53:00,36.0,24.0,30.12,NNE,18,1.0,-999.0,61,-99.99,,,-99.99,,2013-03-23 18:53:00,
2013-03-23 15:02:00,36.0,24.0,30.11,NW,322,1.0,-999.0,61,-99.99,,,-99.99,,2013-03-23 19:02:00,
2013-03-23 15:12:00,36.0,24.0,30.11,NW,322,1.0,-999.0,61,-99.99,,,-99.99,,2013-03-23 19:12:00,
2013-03-23 15:22:00,36.0,23.0,30.11,ENE,58,1.0,-999.0,59,-99.99,,,-99.99,,2013-03-23 19:22:00,
2013-03-23 15:32:00,36.0,23.0,30.09,NNE,21,2.0,-999.0,59,-99.99,,,-99.99,,2013-03-23 19:32:00,
2013-03-23 15:42:00,36.0,23.0,30.09,NNE,21,2.0,-999.0,59,-99.99,,,-99.99,,2013-03-23 19:42:00,
2013-03-23 15:53:00,37.0,24.0,30.10,North,3,1.0,-999.0,58,-99.99,,,-99.99,,2013-03-23 19:53:00,
2013-03-23 16:02:00,37.0,24.0,30.09,NNW,339,2.0,-999.0,58,-99.99,,,-99.99,,2013-03-23 20:02:00,
2013-03-23 16:12:00,37.0,24.0,30.09,NNW,339,2.0,-999.0,58,-99.99,,,-99.99,,2013-03-23 20:12:00,
2013-03-23 16:22:00,36.0,23.0,30.09,NNE,31,3.0,-999.0,58,-99.99,,,-99.99,,2013-03-23 20:22:00,
2013-03-23 16:32:00,37.0,22.0,30.10,North,360,1.0,-999.0,55,-99.99,,,-99.99,,2013-03-23 20:32:00,
2013-03-23 16:42:00,37.0,22.0,30.10,North,360,1.0,-999.0,55,-99.99,,,-99.99,,2013-03-23 20:42:00,
2013-03-23 16:53:00,38.0,24.0,30.09,NNE,13,3.0,-999.0,56,-99.99,,,-99.99,,2013-03-23 20:53:00,
2013-03-23 17:02:00,36.0,23.0,30.09,NE,51,3.0,-999.0,58,-99.99,,,-99.99,,2013-03-23 21:02:00,
2013-03-23 17:12:00,36.0,23.0,30.09,NE,51,3.0,-999.0,58,-99.99,,,-99.99,,2013-03-23 21:12:00,
2013-03-23 17:22:00,37.0,23.0,30.09,NNW,344,1.0,-999.0,56,-99.99,,,-99.99,,2013-03-23 21:22:00,
2013-03-23 17:32:00,37.0,23.0,30.09,NNE,20,1.0,-999.0,57,-99.99,,,-99.99,,2013-03-23 21:32:00,
2013-03-23 17:43:00,37.0,23.0,30.09,NNE,20,1.0,-999.0,57,-99.99,,,-99.99,,2013-03-23 21:43:00,
2013-03-23 17:54:00,37.0,23.0,30.10,ENE,68,1.0,-999.0,57,-99.99,,,-99.99,,2013-03-23 21:54:00,
2013-03-23 18:02:00,36.0,23.0,30.09,NNE,23,2.0,-999.0,58,-99.99,,,-99.99,,2013-03-23 22:02:00,
2013-03-23 18:12:00,36.0,23.0,30.09,NNE,23,2.0,-999.0,58,-99.99,,,-99.99,,2013-03-23 22:12:00,
2013-03-23 18:23:00,36.0,23.0,30.09,NNE,31,2.0,-999.0,58,-99.99,,,-99.99,,2013-03-23 22:23:00,
2013-03-23 18:33:00,36.0,23.0,30.07,NE,52,3.0,-999.0,58,-99.99,,,-99.99,,2013-03-23 22:33:00,
2013-03-23 18:42:00,36.0,23.0,30.07,NE,52,3.0,-999.0,58,-99.99,,,-99.99,,2013-03-23 22:42:00,
2013-03-23 18:53:00,36.0,23.0,30.07,North,360,2.0,-999.0,58,-99.99,,,-99.99,,2013-03-23 22:53:00,
2013-03-23 19:02:00,35.0,22.0,30.07,NE,55,1.0,-999.0,59,-99.99,,,-99.99,,2013-03-23 23:02:00,
2013-03-23 19:12:00,35.0,22.0,30.07,NE,55,1.0,-999.0,59,-99.99,,,-99.99,,2013-03-23 23:12:00,
2013-03-23 19:22:00,35.0,22.0,30.07,NNE,24,2.0,-999.0,59,-99.99,,,-99.99,,2013-03-23 23:22:00,
2013-03-23 19:32:00,35.0,22.0,30.07,NNE,17,1.0,-999.0,59,-99.99,,,-99.99,,2013-03-23 23:32:00,
2013-03-23 19:42:00,35.0,22.0,30.07,NNE,17,1.0,-999.0,59,-99.99,,,-99.99,,2013-03-23 23:42:00,
2013-03-23 19:52:00,35.0,23.0,30.06,NNE,17,1.0,-999.0,60,-99.99,,,-99.99,,2013-03-23 23:52:00,
2013-03-23 20:02:00,34.0,22.0,30.07,ENE,66,1.0,-999.0,62,-99.99,,,-99.99,,2013-03-24 00:02:00,
2013-03-23 20:12:00,34.0,22.0,30.07,ENE,66,1.0,-999.0,62,-99.99,,,-99.99,,2013-03-24 00:12:00,
2013-03-23 20:22:00,33.0,22.0,30.06,ENE,64,0.0,-999.0,64,-99.99,,,-99.99,,2013-03-24 00:22:00,
2013-03-23 20:32:00,33.0,23.0,30.06,ENE,64,0.0,-999.0,65,-99.99,,,-99.99,,2013-03-24 00:32:00,
2013-03-23 20:42:00,33.0,23.0,30.06,ENE,64,0.0,-999.0,65,-99.99,,,-99.99,,2013-03-24 00:42:00,
2013-03-23 20:52:00,32.0,22.0,30.07,ENE,65,0.0,-999.0,66,-99.99,,,-99.99,,2013-03-24 00:52:00,
2013-03-23 21:02:00,31.0,21.0,30.07,ENE,64,0.0,-999.0,67,-99.99,,,-99.99,,2013-03-24 01:02:00,
2013-03-23 21:12:00,31.0,21.0,30.07,ENE,64,0.0,-999.0,67,-99.99,,,-99.99,,2013-03-24 01:12:00,
2013-03-23 21:22:00,31.0,22.0,30.07,ENE,64,0.0,-999.0,68,-99.99,,,-99.99,,2013-03-24 01:22:00,
2013-03-23 21:32:00,31.0,22.0,30.07,ENE,64,0.0,-999.0,69,-99.99,,,-99.99,,2013-03-24 01:32:00,
2013-03-23 21:42:00,31.0,22.0,30.07,ENE,64,0.0,-999.0,69,-99.99,,,-99.99,,2013-03-24 01:42:00,
2013-03-23 21:53:00,30.0,21.0,30.07,ENE,64,0.0,-999.0,70,-99.99,,,-99.99,,2013-03-24 01:53:00,
2013-03-23 22:02:00,30.0,22.0,30.07,ENE,64,0.0,-999.0,71,-99.99,,,-99.99,,2013-03-24 02:02:00,
2013-03-23 22:12:00,30.0,22.0,30.07,ENE,64,0.0,-999.0,71,-99.99,,,-99.99,,2013-03-24 02:12:00,
2013-03-23 22:22:00,30.0,22.0,30.07,NE,56,0.0,-999.0,71,-99.99,,,-99.99,,2013-03-24 02:22:00,
2013-03-23 22:32:00,29.0,21.0,30.06,NNE,27,1.0,-999.0,72,-99.99,,,-99.99,,2013-03-24 02:32:00,
2013-03-23 22:42:00,29.0,21.0,30.06,NNE,27,1.0,-999.0,72,-99.99,,,-99.99,,2013-03-24 02:42:00,
2013-03-23 22:52:00,29.0,21.0,30.05,NE,40,0.0,-999.0,72,-99.99,,,-99.99,,2013-03-24 02:52:00,
2013-03-23 23:02:00,29.0,21.0,30.04,NE,45,1.0,-999.0,73,-99.99,,,-99.99,,2013-03-24 03:02:00,
2013-03-23 23:12:00,29.0,21.0,30.04,NE,45,1.0,-999.0,73,-99.99,,,-99.99,,2013-03-24 03:12:00,
2013-03-23 23:22:00,29.0,21.0,30.04,NNE,13,0.0,-999.0,73,-99.99,,,-99.99,,2013-03-24 03:22:00,
2013-03-23 23:33:00,29.0,22.0,30.04,NNE,21,0.0,-999.0,74,-99.99,,,-99.99,,2013-03-24 03:33:00,
2013-03-23 23:42:00,29.0,22.0,30.04,NNE,21,0.0,-999.0,74,-99.99,,,-99.99,,2013-03-24 03:42:00,
2013-03-23 23:53:00,29.0,22.0,30.04,NNE,30,0.0,-999.0,74,-99.99,,,-99.99,,2013-03-24 03:53:00,